Regional Weather Roundup
Issued by NWS Grand Forks, ND

Home | Current Version | Previous Version | Graphics & Text | Print | Product List | Glossary On
Versions: 1 2 3 4 5 6 7 8 9 10 11 12 13 14 15 16 17 18 19 20 21 22 23 24 25 26 27 28 29 30 31 32 33 34 35 36 37 38 39 40 41 42 43 44 45 46 47 48 49 50
000
ASUS43 KFGF 241331
RWRFGF
PRAIRIE TO PINES  WEATHER ROUNDUP
NATIONAL WEATHER SERVICE EASTERN NORTH DAKOTA/GRAND FORKS ND
800 AM CDT SAT SEP 24 2016

 **SATELLITE DATA USED TO AUGMENT SKY COVER AT AUTOMATED STATIONS**
 *****  WEATHER ACROSS EASTERN NORTH DAKOTA  *****

CITY           SKY/WX    TMP DP  RH WIND       PRES   REMARKS
GRAND FORKS    CLOUDY    64  61  90 SE18      29.88F
GRAND FRKS AFB CLOUDY    63  63 100 SE12      29.88F
DEVILS LAKE    CLOUDY    63  63 100 SE14      29.83F FOG
FARGO          CLOUDY    69  64  84 SE16G29   29.89S
WAHPETON ARPT  CLOUDY    66  63  88 SE23G29   29.91F
$$

 ***** WEATHER ACROSS CENTRAL AND WESTERN NORTH DAKOTA  *****

CITY           SKY/WX    TMP DP  RH WIND       PRES   REMARKS
BISMARCK       CLOUDY    61  60  97 NE9       29.71F
MINOT          FOG       61  61 100 N5        29.76S VSB 1/2
JAMESTOWN      CLEAR     65  64  97 SE14G23   29.81S
MINOT AFB      FOG       61  61 100 E12       29.74F VSB<1/4
GARRISON         N/A     62  62 100 CALM      29.75S
WILLISTON      CLOUDY    55  54  96 N9        29.79S
DICKINSON      FOG       56  56 100 N9        29.70F VSB 1/4
HETTINGER      FOG       58  57  97 NE10      29.72R VSB 1/4
$$

 *****  OTHER AIRPORT OBSERVATIONS IN OUR AREA  *****

CITY           SKY/WX    TMP DP  RH WIND       PRES   REMARKS
WALHALLA       FAIR      57  57 100 SE15      29.87F FOG
GRAFTON AIRPOR CLOUDY    59  59 100 SE12      29.90F FOG
VALLEY CITY AR CLOUDY    66  66 100 SE17      29.86S
CANDO          FOG       59  59 100 SE15      29.85S VSB 3/4
CAVALIER APRT  FOG       57  57 100 SE9G16    29.88F VSB 3/4
GWINNER        FAIR      68  66  94 SE16G22   29.85F
SHEYENNE NWR     N/A     68  65  90 SE15      29.95S
ROLLA          FOG       57  57 100 SE10G18   29.84F VSB 1/4
 ***** THE ABOVE OBSERVATIONS ARE NON NWS ARE NOT QUALITY
       CONTROLLED AND MAY MIS-REPORT RAIN FOR SNOW...
$$

  *****  WEATHER ACROSS NORTHERN MINNESOTA  *****

CITY           SKY/WX    TMP DP  RH WIND       PRES   REMARKS
FLAG ISLAND    CLOUDY    57  55  94 SE15      30.02S
WARROAD        CLOUDY    55  52  88 E10G17    30.01F FOG
ROSEAU         CLOUDY    55  52  88 E8        29.98F HAZE
HALLOCK        CLOUDY    61  59  94 SE13      29.90F FOG
THF RVR FALLS  CLOUDY    61  59  93 SE14      29.95F
BAUDETTE       CLOUDY    55  54  96 SE13      30.04F FOG
WASKISH        CLOUDY    61  57  88 SE9       30.04F
CROOKSTON      CLOUDY    64  63  94 SE14      29.91F
STEPHEN NDAWN    N/A     61  59  94 SE12        N/A
GREENBUSH NDAW   N/A     57  57 100 E10         N/A
$$
  *****  WEATHER ACROSS CENTRAL AND WEST MINNESOTA  *****

CITY           SKY/WX    TMP DP  RH WIND       PRES   REMARKS
FOSSTON        PTCLDY    61  59  94 SE12G18   29.97S
BEMIDJI        CLOUDY    59  58  98 SE13      30.03F FOG
PARK RAPIDS    CLOUDY    62  60  93 SE13      30.03F FOG
ELBOW LAKE     CLOUDY    66  65  96 E16G23    29.96F
WADENA         FOG       61  61 100 SE12      30.02F VSB 1
DETROIT LAKES  CLOUDY    63  61  94 SE15      29.99S FOG
MOORHEAD       CLOUDY    68  64  88 SE15G22   29.91S
FERGUS FALLS   CLOUDY    66  66 100 SE20      29.95F
MORRIS MN      MOCLDY    66  66 100 SE16G22   29.95F FOG
STAPLES        CLOUDY    61  61 100 SE8       30.05S FOG
$$
  *****  WEATHER ELSEWHERE ACROSS MINNESOTA  *****

CITY           SKY/WX    TMP DP  RH WIND       PRES   REMARKS
DULUTH         CLOUDY    57  52  83 SE13      30.17R
INTRNTL FALLS  CLOUDY    54  52  93 E9        30.09S
ELY            CLOUDY    55  50  82 SE8       30.17S
CLOQUET        CLOUDY    57  50  77 E9        30.16S
WHEATON        MOCLDY    68  66  94 SE18G24   29.93S FOG
BRAINERD       FOG       61  60  97 SE8       30.08S VSB 1
HIBBING        CLOUDY    56  52  86 SE9       30.14S
ALEXANDRIA     FOG       64  64 100 SE13      30.03F VSB 3/4
SAINT CLOUD    CLOUDY    63  63 100 SE10      30.07S FOG
MINNEAPOLIS    CLOUDY    64  60  87 SE13      30.10S
$$

  *****  WEATHER ACROSS SOUTH DAKOTA  *****

CITY           SKY/WX    TMP DP  RH WIND       PRES   REMARKS
SIOUX FALLS    PTCLDY    69  65  86 SE13      29.93S
BROOKINGS      CLOUDY    68  65  90 SE16      29.92F
WATERTOWN      PTCLDY    68  64  87 SE15G23   29.90R
HURON          CLEAR     69  63  81 SE16G28   29.81F
SISSETON         N/A     69  66  90 S15G24    29.89F
ABERDEEN       MOCLDY    70  63  78 SE16G26   29.80F
MITCHELL       PTCLDY    69  64  84 SE17G24   29.83F
PIERRE         PTCLDY    62  55  77 S13       29.75S
MOBRIDGE       PTCLDY    69  61  75 S18       29.72R
RAPID CITY     PTCLDY    54  48  80 W12       29.77S
$$

  *****  SOME WEATHER IN NEARBY STATES *****

CITY           SKY/WX    TMP DP  RH WIND       PRES   REMARKS
GLASGOW MT     FOG       47  46  97 NW14      29.83F VSB 3/4
GREAT FALLS MT CLEAR     45  38  76 SW12      30.00R
CHEYENNE WY    CLOUDY    39  33  79 W12       29.97F
SCOTTSBLUFF NE CLEAR     43  43 100 NW5       29.93S
OMAHA NE       MOCLDY    73  64  73 SE9       29.96S
DES MOINES IA  PTCLDY    69  66  90 E8        30.05R FOG
DAVENPORT IA   CLOUDY    66  64  93 E8        30.15R FOG
CHICAGO IL     CLOUDY    66  61  84 E9        30.19R
EAU CLAIRE WI  CLOUDY    61  57  87 E8        30.16S
LA CROSSE WI   CLOUDY    65  61  87 SE8       30.16R
$$

  *****  SOME NATIONAL WEATHER *****

CITY           SKY/WX    TMP DP  RH WIND       PRES   REMARKS
LA GUARDIA NY  PTSUNNY   61  54  77 NE9       30.12R
RALEIGH NC     SUNNY     71  70  96 CALM      30.08R
ATLANTA GA     MOSUNNY   80  66  62 CALM      30.12R
NEW ORLEANS LA MOSUNNY   83  76  79 CALM      30.07R HX  91
OKLAHOMA CITY  PTCLDY    73  71  93 S9        29.99S
ALBUQUERQUE NM PTCLDY    45  41  86 CALM      30.16R
SALT LAKE CITY CLOUDY    50  43  77 SE8       30.13R
LOS ANGELES CA PTCLDY    63  50  62 E5        29.99R
BOISE ID       CLEAR     48  42  80 NW7       30.21R
SEATTLE WA     MOCLDY    54  50  86 CALM      30.33R
$$

*** WEATHER ACROSS MANITOBA...SASKATCHEWAN AND ONTARIO ***
                ***ONTARIO***

CITY           SKY/WX    TMP DP  RH WIND       PRES   REMARKS
GERALDTON      MOSUNNY   37  37 100 CALM      30.32F
THUNDER BAY    PTSUNNY   45  45 100 CALM      30.27S
SIOUX LOOKOUT  CLOUDY    50  45  81 SE7       30.18S
TORONTO        MOSUNNY   52  45  76 N8        30.28R
BIG TROUT LK   CLEAR     48  39  71 W5        30.25F
PICKLE LAKE    MOCLDY    39  36  87 SE7       30.26S
DRYDEN         LGT RAIN  50  46  87 E9        30.13F FOG
KENORA         LGT RAIN  52  52 100 SE9G20    30.07S
$$
                *** MANITOBA***

CITY           SKY/WX    TMP DP  RH WIND       PRES   REMARKS
BRANDON        TSTM      54  54 100 E9        29.85F FOG
DAUPHIN        LGT RAIN  52  52 100 E9        29.87F
ISLAND LAKE    MOCLDY    50  41  71 SE12G18   30.12
PILOT MOUND      N/A     57  55  94 SE17G23     N/A
THE PAS        DRIZZLE   50  48  93 SE7       29.91F FOG
THOMPSON       CLOUDY    48  39  71 E5        30.06
WINNIPEG       CLOUDY    57  55  94 SE16G22   29.92F
LYNN LAKE      CLOUDY    48  43  81 SE8       29.99S
CHURCHILL      MOCLDY    39  37  93 S7        30.13F
GILLAM         MOCLDY    41  37  87 SE6       30.16F
$$
                ***SASKATCHEWAN***

CITY           SKY/WX    TMP DP  RH WIND       PRES   REMARKS
ESTEVAN        LGT RAIN  54  54 100 NE9       29.77F FOG
KINDERSLEY     FOG       41  41 100 VRB2      29.88S VSB 3/4
LLOYDMINSTER   DRIZZLE   48  46  93 NW8       29.90R FOG
PRINCE ALBERT  FOG       48  48 100 E2        29.86S VSB 1/2
REGINA         CLOUDY    52  52 100 CALM      29.83F FOG
YORKTON        RAIN      50  50 100 SE3       29.85F VSB 1/4
N. BATTLEFORD  FOG       48 N/A N/A CALM      29.91R VSB 1/2
LA RONGE       CLOUDY    48  46  93 S6        29.88S
SASKATOON      CLOUDY    50  50 100 NW5       29.88R FOG
SWIFT CURRENT  CLEAR     43  41  93 W8        29.86R
$$
NOTE: THESE ARE AUTOMATED STATIONS WITH LIMITED QUALITY CONTROL
      "FAIR" INDICATES FEW OR NO CLOUDS BELOW 12,000 FEET WITH NO
      SIGNIFICANT WEATHER AND/OR OBSTRUCTIONS TO VISIBILITY.
      SKY/WX - SKY CONDITION AND SIGNIFICANT WEATHER.
      TMP - AIR TEMPERATURE.    DP   - DEWPOINT TEMPERATURE.
      RH  - RELATIVE HUMIDITY.  PRES - PRESSURE.
      HX  - HEAT INDEX.         WCI  - WIND CHILL INDEX.
$




USA.gov is the U.S. government's official web portal to all federal, state and local government web resources and services.